Location: Beaurevoir
(49.9971°N, 3.3085°E)
Time: 04:31:32
(UTC+00:00)

SJ 16-02 - Pass Details

Date: 23 May 2024
Orbit: 594 x 606 km, 75.0° (Epoch: 21 June)

Event Time Altitude Azimuth Distance (km) Brightness Sun altitude
Exits shadow 01:40:37 13° 159° (SSE) 1,728 3.3 -14.8°
Maximum altitude 01:43:49 31° 102° (ESE) 1,059 2.7 -14.5°
Drops below altitude 10° 01:47:37 10° 40° (NE) 1,939 5.3 -14.2°
Sets 01:50:02 0° 30° (NNE) 2,846 6.8 -14.0°
